This is the latest recevied weather packets stored in our database for station/object K5VP. If no packets are shown the sender has not sent any weather packets the latest 10 day(s).
| Time | Temp. | Humidity | Pressure | Rain* | Wind** | Luminosity | Snow |
|---|---|---|---|---|---|---|---|
| 1777677749 | 16.67° C | 42% | 1016.6 hPa | 0 mm | - | - | - |
| 1777677364 | 16.67° C | 39% | 1016.5 hPa | 0 mm | - | - | - |
| 1777676974 | 16.67° C | 41% | 1016.5 hPa | 0 mm | - | - | - |
| 1777676597 | 16.67° C | 40% | 1016.4 hPa | 0 mm | - | - | - |
| 1777676206 | 16.67° C | 40% | 1016.3 hPa | 0 mm | - | - | - |
| 1777675818 | 16.67° C | 39% | 1016.1 hPa | 0 mm | - | - | - |
| 1777675448 | 16.67° C | 37% | 1016.1 hPa | 0 mm | - | - | - |
| 1777675070 | 17.22° C | 36% | 1016.1 hPa | 0 mm | - | - | - |
| 1777674688 | 17.22° C | 36% | 1016 hPa | 0 mm | - | - | - |
| 1777674308 | 17.22° C | 35% | 1016 hPa | 0 mm | - | - | - |
| 1777673923 | 17.78° C | 33% | 1015.9 hPa | 0 mm | - | - | - |
| 1777673533 | 17.78° C | 35% | 1015.8 hPa | 0 mm | - | - | - |
| 1777673140 | 17.78° C | 34% | 1016 hPa | 0 mm | - | - | - |
| 1777672760 | 17.78° C | 36% | 1015.9 hPa | 0 mm | - | - | - |
| 1777672387 | 17.78° C | 36% | 1016.1 hPa | 0 mm | - | - | - |
| 1777671994 | 17.78° C | 35% | 1016 hPa | 0 mm | - | - | - |
| 1777671599 | 17.78° C | 34% | 1016.1 hPa | 0 mm | - | - | - |
| 1777671216 | 18.33° C | 33% | 1016.1 hPa | 0 mm | - | - | - |
| 1777670847 | 18.33° C | 34% | 1016 hPa | 0 mm | - | - | - |
| 1777670473 | 18.33° C | 36% | 1016.1 hPa | 0 mm | - | - | - |
| 1777670091 | 17.78° C | 36% | 1016.2 hPa | 0 mm | - | - | - |
| 1777669707 | 18.33° C | 33% | 1016.2 hPa | 0 mm | - | - | - |
| 1777669309 | 18.33° C | 35% | 1016.3 hPa | 0 mm | - | - | - |
| 1777668922 | 18.33° C | 33% | 1016.6 hPa | 0 mm | - | - | - |
| 1777668553 | 18.33° C | 36% | 1016.7 hPa | 0 mm | - | - | - |
* Rain latest hour (hover to see other rain measurements)
** Current wind speed in m/s (hover to see current wind gust speed)